Saison 2023 · Manche 6

Monaco Grand Prix

2023-05-28 · Circuit de Monaco · Monaco · Monaco Grand Prix · 78Lap · 260.286km
Red Bull 1:48:51.980
Victoire par équipe 25pt P1 · P16
Meilleur tour
1:15.650 · L33
Abandon
1
Lance Stroll L53
Météo
25°/39°
moy. air/piste · pluie · humidité 46%
Voiture de sécurité
0
Déploiements SC/VSC
Utilisation des pneus Direction de course
Storylines · This Grand Prix & circuit
Plus de victoires à ce GP
Ayrton Senna 6 victoires
Michael Schumacher 5 victoires
Graham Hill 5 victoires
Conversion pole-victoire 34/72 47.2%
Most DNFs · all-time P11
Most SC/VSC · all-time P14
Arrivée la plus serrée · all-time P13
Most lead changes · all-time P12
Circuit Info
Circuit de Monaco Monte Carlo, Monaco
78Lap 260.286km 72 courses held (1950–) Record du tour 1:12.909 · Lewis Hamilton (2021)
Records Watch · Active drivers ranked at this Grand Prix
P5 Lewis Hamilton 3 victoires · → Alain Prost -1
P9 Fernando Alonso 2 victoires · → Nico Rosberg -1
P9 Max Verstappen 2 victoires · → Nico Rosberg -1
P1 Fernando Alonso 22 départs · GP #1
P2 Lewis Hamilton 19 départs · → Fernando Alonso -3
P11 Sergio Pérez 14 départs · → Felipe Massa -1
Course Trace · position by lap
départ arrêté SG 1 7 13 19 25 31 37 43 49 55 61 67 73 FIN Verstappen · arrêt aux stands L55 Verstappen VER Verstappen VER Alonso · arrêt aux stands L54 Alonso ALO Alonso ALO Ocon · arrêt aux stands L32 Ocon · arrêt aux stands L54 Ocon OCO Ocon OCO Hamilton · arrêt aux stands L31 Hamilton · arrêt aux stands L54 Hamilton HAM Hamilton HAM Russell · arrêt aux stands L54 Russell · +5s ajouté après la course Russell RUS Russell RUS Leclerc · arrêt aux stands L44 Leclerc · arrêt aux stands L55 Leclerc LEC Leclerc LEC Gasly · arrêt aux stands L47 Gasly · arrêt aux stands L54 Gasly GAS Gasly GAS Sainz · arrêt aux stands L33 Sainz · arrêt aux stands L55 Sainz SAI Sainz SAI Norris · arrêt aux stands L50 Norris · arrêt aux stands L54 Norris NOR Norris NOR Piastri · arrêt aux stands L54 Piastri PIA Piastri PIA Bottas · arrêt aux stands L51 Bottas BOT Bottas BOT de Vries · arrêt aux stands L53 de Vries DEV de Vries DEV Zhou · arrêt aux stands L1 Zhou · arrêt aux stands L52 Zhou ZHO Zhou ZHO Albon · arrêt aux stands L18 Albon · arrêt aux stands L52 Albon ALB Albon ALB Tsunoda · arrêt aux stands L53 Tsunoda TSU Tsunoda TSU Pérez · arrêt aux stands L1 Pérez · arrêt aux stands L34 Pérez · arrêt aux stands L53 Pérez · arrêt aux stands L57 Pérez · arrêt aux stands L70 Pérez PER Pérez PER Hülkenberg · arrêt aux stands L1 Hülkenberg · arrêt aux stands L54 · pénalité purgée Hülkenberg · arrêt aux stands L59 Hülkenberg · +10s ajouté après la course Hülkenberg HUL Hülkenberg HUL Sargeant · arrêt aux stands L20 Sargeant · arrêt aux stands L23 Sargeant · arrêt aux stands L52 Sargeant · +5s ajouté après la course Sargeant SAR Sargeant SAR Magnussen · arrêt aux stands L56 Magnussen · arrêté L70 · classé P19 Magnussen MAG Magnussen MAG Stroll · arrêt aux stands L51 Stroll · abandon L53 Stroll STR Stroll STR
arrêt aux stands pénalité purgée aux stands SG Grille de départ FIN classement officiel pénalité ajoutée après la course voiture arrêtée position à chaque tour (depuis 1996)
PosPiloteTeamGrilleTourTemps / StatutPoints
1 1 Max Verstappen Red Bull 1 78 1:48:51.980 25
2 14 Fernando Alonso Aston Martin 2 78 +27.921 18
3 31 Esteban Ocon Alpine F1 Team 3 78 +36.990 15
4 44 Lewis Hamilton FL Mercedes 5 78 +39.062 13
5 63 George Russell Mercedes 8 78 +56.284 10
6 16 Charles Leclerc Ferrari 6 78 +1:01.890 8
7 10 Pierre Gasly Alpine F1 Team 7 78 +1:02.362 6
8 55 Carlos Sainz Ferrari 4 78 +1:03.391 4
9 4 Lando Norris McLaren 10 77 +4.061 2
10 81 Oscar Piastri McLaren 11 77 +13.959 1
11 77 Valtteri Bottas Alfa Romeo 15 77 +28.963
12 21 Nyck de Vries AlphaTauri 12 77 +57.317
13 24 Guanyu Zhou Alfa Romeo 19 77 +1:11.852
14 23 Alexander Albon Williams 13 77 +1:19.210
15 22 Yuki Tsunoda AlphaTauri 9 76 +7.545
16 11 Sergio Pérez Red Bull 20 76 +49.024
17 27 Nico Hülkenberg Haas F1 Team 18 76 +58.506
18 2 Logan Sargeant Williams 16 76 +1:17.983
19 20 Kevin Magnussen Haas F1 Team 17 70
R 18 Lance Stroll Aston Martin 14 53 Retired
PosPiloteTeamQ1Q2Q3Écart à la pole
1 1 Max Verstappen Red Bull 1:12.386 1:11.908 1:11.365 POLE Q3
2 14 Fernando Alonso Aston Martin 1:12.886 1:12.107 1:11.449 +0.084 Q3
3 16 Charles Leclerc Ferrari 1:12.912 1:12.103 1:11.471 +0.106 Q3
4 31 Esteban Ocon Alpine F1 Team 1:12.967 1:12.248 1:11.553 +0.188 Q3
5 55 Carlos Sainz Ferrari 1:12.717 1:12.210 1:11.630 +0.265 Q3
6 44 Lewis Hamilton Mercedes 1:12.872 1:12.156 1:11.725 +0.360 Q3
7 10 Pierre Gasly Alpine F1 Team 1:13.033 1:12.169 1:11.933 +0.568 Q3
8 63 George Russell Mercedes 1:12.769 1:12.151 1:11.964 +0.599 Q3
9 22 Yuki Tsunoda AlphaTauri 1:12.642 1:12.249 1:12.082 +0.717 Q3
10 4 Lando Norris McLaren 1:12.877 1:12.377 1:12.254 +0.889 Q3
11 81 Oscar Piastri McLaren 1:13.006 1:12.395 +1.030 Q2
12 21 Nyck de Vries AlphaTauri 1:13.054 1:12.428 +1.063 Q2
13 23 Alexander Albon Williams 1:12.706 1:12.527 +1.162 Q2
14 18 Lance Stroll Aston Martin 1:12.722 1:12.623 +1.258 Q2
15 77 Valtteri Bottas Alfa Romeo 1:13.038 1:12.625 +1.260 Q2
16 2 Logan Sargeant Williams 1:13.113 +1.748 Q1
17 20 Kevin Magnussen Haas F1 Team 1:13.270 +1.905 Q1
18 27 Nico Hülkenberg Haas F1 Team 1:13.279 +1.914 Q1
19 24 Guanyu Zhou Alfa Romeo 1:13.523 +2.158 Q1
20 11 Sergio Pérez Red Bull 1:13.850 +2.485 Q1
Grille de départ
Officielle
Final grid as classé, including any depuis la voie des stands départs. Source: Jolpica-F1. The arrow compares the grid slot with the les qualifications classification; hover a drop to see the stewards document behind it.
Aucune donnée pour cette séance.
PosPiloteMeilleur tourÉcartTours
1 55 Carlos Sainz 1:13.372 26
2 14 Fernando Alonso 1:13.710 +0.338 28
3 44 Lewis Hamilton 1:14.035 +0.663 27
4 11 Sergio Pérez 1:14.038 +0.666 27
5 16 Charles Leclerc 1:14.093 +0.721 24
6 1 Max Verstappen 1:14.244 +0.872 26
7 4 Lando Norris 1:14.467 +1.095 25
8 31 Esteban Ocon 1:14.585 +1.213 29
9 18 Lance Stroll 1:14.653 +1.281 28
10 23 Alexander Albon 1:14.666 +1.294 32
11 77 Valtteri Bottas 1:14.718 +1.346 29
12 20 Kevin Magnussen 1:14.725 +1.353 29
13 22 Yuki Tsunoda 1:14.820 +1.448 29
14 10 Pierre Gasly 1:14.866 +1.494 30
15 63 George Russell 1:15.066 +1.694 24
16 21 Nyck de Vries 1:15.083 +1.711 33
17 81 Oscar Piastri 1:15.192 +1.820 32
18 2 Logan Sargeant 1:15.557 +2.185 30
19 24 Guanyu Zhou 1:15.684 +2.312 25
20 27 Nico Hülkenberg 1:15.785 +2.413 17
Classified by best lap · source OpenF1 (2023+)
PosPiloteMeilleur tourÉcartTours
1 1 Max Verstappen 1:12.462 30
2 16 Charles Leclerc 1:12.527 +0.065 33
3 55 Carlos Sainz 1:12.569 +0.107 22
4 14 Fernando Alonso 1:12.682 +0.220 32
5 4 Lando Norris 1:12.906 +0.444 18
6 44 Lewis Hamilton 1:12.960 +0.498 29
7 11 Sergio Pérez 1:12.991 +0.529 30
8 77 Valtteri Bottas 1:13.050 +0.588 33
9 10 Pierre Gasly 1:13.089 +0.627 28
10 31 Esteban Ocon 1:13.162 +0.700 30
11 18 Lance Stroll 1:13.185 +0.723 31
12 63 George Russell 1:13.191 +0.729 32
13 24 Guanyu Zhou 1:13.354 +0.892 32
14 20 Kevin Magnussen 1:13.457 +0.995 28
15 27 Nico Hülkenberg 1:13.520 +1.058 33
16 22 Yuki Tsunoda 1:13.641 +1.179 22
17 21 Nyck de Vries 1:13.663 +1.201 34
18 81 Oscar Piastri 1:13.673 +1.211 30
19 23 Alexander Albon 1:14.217 +1.755 10
20 2 Logan Sargeant 1:14.238 +1.776 33
Classified by best lap · source OpenF1 (2023+)
PosPiloteMeilleur tourÉcartTours
1 1 Max Verstappen 1:12.776 19
2 11 Sergio Pérez 1:12.849 +0.073 24
3 18 Lance Stroll 1:12.942 +0.166 20
4 55 Carlos Sainz 1:13.261 +0.485 20
5 4 Lando Norris 1:13.396 +0.620 21
6 10 Pierre Gasly 1:13.453 +0.677 24
7 16 Charles Leclerc 1:13.475 +0.699 19
8 44 Lewis Hamilton 1:13.486 +0.710 17
9 31 Esteban Ocon 1:13.496 +0.720 18
10 77 Valtteri Bottas 1:13.521 +0.745 20
11 63 George Russell 1:13.590 +0.814 18
12 20 Kevin Magnussen 1:13.624 +0.848 13
13 27 Nico Hülkenberg 1:13.650 +0.874 16
14 14 Fernando Alonso 1:13.697 +0.921 18
15 22 Yuki Tsunoda 1:13.738 +0.962 21
16 24 Guanyu Zhou 1:13.772 +0.996 20
17 2 Logan Sargeant 1:13.851 +1.075 19
18 23 Alexander Albon 1:13.930 +1.154 23
19 81 Oscar Piastri 1:13.998 +1.222 18
20 21 Nyck de Vries 1:14.187 +1.411 24
Classified by best lap · source OpenF1 (2023+)
#PiloteTemps au tourTour
1 44 Lewis Hamilton 1:15.650 L33
2 16 Charles Leclerc 1:15.773 L46
3 10 Pierre Gasly 1:15.831 L49
4 10 Pierre Gasly 1:15.955 L50
5 16 Charles Leclerc 1:15.956 L50
6 44 Lewis Hamilton 1:16.257 L47
7 11 Sergio Pérez 1:16.269 L5
8 16 Charles Leclerc 1:16.283 L49
9 11 Sergio Pérez 1:16.353 L38
10 16 Charles Leclerc 1:16.358 L47
Top 10 la plus rapide race tours — #1 is the la plus rapide lap of la course(FL).
Arrêts aux stands · comparaison
25s 30s 35s 40s 45s 50s médiane 25.8s Pierre Gasly · L47 · 23.902s Charles Leclerc · L44 · 24.192s Sergio Pérez · L53 · 24.217s Carlos Sainz · L33 · 24.252s Alexander Albon · L18 · 24.290s Logan Sargeant · L20 · 24.376s Fernando Alonso · L54 · 24.414s Nyck de Vries · L53 · 24.539s Lewis Hamilton · L31 · 24.594s Lance Stroll · L51 · 24.656s Lando Norris · L50 · 24.663s Esteban Ocon · L54 · 24.707s Max Verstappen · L55 · 24.798s Sergio Pérez · L1 · 24.887s Guanyu Zhou · L52 · 25.260s Sergio Pérez · L70 · 25.466s Nico Hülkenberg · L59 · 25.672s Charles Leclerc · L55 · 25.713s Esteban Ocon · L32 · 25.833s Oscar Piastri · L54 · 25.851s Logan Sargeant · L52 · 25.946s Guanyu Zhou · L1 · 26.141s Lewis Hamilton · L54 · 26.685s Alexander Albon · L52 · 26.990s Logan Sargeant · L23 · 27.774s Carlos Sainz · L55 · 29.300s Sergio Pérez · L57 · 29.337s Pierre Gasly · L54 · 29.949s Valtteri Bottas · L51 · 30.395s George Russell · L54 · 30.980s Nico Hülkenberg · L1 · 32.494s Sergio Pérez · L34 · 32.749s Lando Norris · L54 · 33.428s Yuki Tsunoda · L53 · 33.706s Nico Hülkenberg · L54 · 34.725s · pénalité purgée Kevin Magnussen · L56 · 51.052s
la plus rapide 23.902s Pierre Gasly la plus lente 51.052s Kevin Magnussen pénalité purgée temps de passage dans la voie des stands — un point par arrêt
PiloteArrêtTourTempsPassage dans la voie des stands
11 Sergio Pérez 1 1 15:04:37 24.887s
27 Nico Hülkenberg 1 1 15:04:32 32.494s
24 Guanyu Zhou 1 1 15:04:37 26.141s
23 Alexander Albon 1 18 15:27:12 24.290s
2 Logan Sargeant 1 20 15:30:02 24.376s
2 Logan Sargeant 2 23 15:34:16 27.774s
44 Lewis Hamilton 1 31 15:43:34 24.594s
31 Esteban Ocon 1 32 15:44:45 25.833s
55 Carlos Sainz 1 33 15:46:05 24.252s
11 Sergio Pérez 2 34 15:48:26 32.749s
16 Charles Leclerc 1 44 16:00:25 24.192s
10 Pierre Gasly 1 47 16:04:16 23.902s
4 Lando Norris 1 50 16:08:48 24.663s
77 Valtteri Bottas 1 51 16:10:46 30.395s
18 Lance Stroll 1 51 16:10:52 24.656s
23 Alexander Albon 2 52 16:12:37 26.990s
24 Guanyu Zhou 2 52 16:12:35 25.260s
2 Logan Sargeant 3 52 16:13:19 25.946s
22 Yuki Tsunoda 1 53 16:13:18 33.706s
21 Nyck de Vries 1 53 16:13:47 24.539s
11 Sergio Pérez 3 53 16:14:19 24.217s
14 Fernando Alonso 1 54 16:13:32 24.414s
81 Oscar Piastri 1 54 16:15:18 25.851s
63 George Russell 1 54 16:13:57 30.980s
4 Lando Norris 2 54 16:15:20 33.428s
10 Pierre Gasly 2 54 16:14:18 29.949s
44 Lewis Hamilton 2 54 16:14:09 26.685s
27 Nico Hülkenberg 2 54 16:16:01 34.725s
31 Esteban Ocon 2 54 16:14:06 24.707s
1 Max Verstappen 1 55 16:15:17 24.798s
16 Charles Leclerc 2 55 16:16:03 25.713s
55 Carlos Sainz 2 55 16:16:04 29.300s
20 Kevin Magnussen 1 56 16:20:26 51.052s
11 Sergio Pérez 4 57 16:21:27 29.337s
27 Nico Hülkenberg 3 59 16:25:02 25.672s
11 Sergio Pérez 5 70 16:43:16 25.466s
arrêts
SG 10 20 30 40 50 60 70 L78
1
1
M54
I24
14
1
H53·+1
I25
31
2
M31
H22
I25
44
2
M30
H23
I25
63
1
H53
I25
16
2
H43
M11
I24
10
2
H46
M7
I25
55
2
H32
M22
I24
4
2
M49
H4
I24
81
1
H53
I24
77
1
H50
I27
21
1
M52
I25
24
2
H51
I26
23
2
M17
H34
I26
22
1
M52
I24
11
5
H33
M19·+1
I4
W13
I7
27
3
H53
I5
W18
2
3
M19
H3
S29
I25
20
1
H55
W15
18
1
H50·+1
I3
S Soft M Medium H Hard I Intermediate W Wet SC·VSC arrêt aux stands pénalité purgée aux stands
Course · largeur de barre = tours sur ce train, ·+N = monté usagé avec N tours au compteur · source OpenF1 (2023+)
Composés désignés pour ce Grand Prix
C3 Dur C4 Medium C5 Tendre
Pirelli désigne trois de ses composés slicks pour chaque épreuve ; plus le numéro C est élevé, plus le pneu est tendre. Document FIA ↗
Plus de places gagnées en piste
11
+11
P20→P16
24
+10
P19→P13
23
+9
P13→P14
27
+9
P18→P17
77
+8
P15→P11
16
+7
P6→P6
31
+6
P3→P3
18
+6
P14→P—
Plus de places perdues
Alexander Albon −10 Sergio Pérez −10 Carlos Sainz −9
Course · Somme des places gagnées en piste tour par tour — tour de départ et tours aux stands du pilote exclus. Données de tours de course depuis 1996.
PiloteTypeTourPurgéeInfligéeMotif
27 Nico Hülkenberg Time penalty 5 54 +5s · 2pt Infringement - Car 27 - Causing a Collision (5 second time penalty. 2 penalty points (total of 2 for the 12 month period)) Document FIA ↗
Tour 5 · Purgée 54 · +5s · 2pt Infringement - Car 27 - Causing a Collision (5 second time penalty. 2 penalty points (total of 2 for the 12 month period)) Document FIA ↗
2 Logan Sargeant Time penalty 59 Après la course +5s Infringement - Car 2 - Pit Lane Speeding (5 second time penalty.) Document FIA ↗
Tour 59 · Purgée Après la course · +5s Infringement - Car 2 - Pit Lane Speeding (5 second time penalty.) Document FIA ↗
63 George Russell Time penalty 59 Après la course +5s · 2pt Infringement - Car 63 - Unsafe Rejoin (5 second time penalty. 2 penalty points (total of 6 for the 12 month period)) Document FIA ↗
Tour 59 · Purgée Après la course · +5s · 2pt Infringement - Car 63 - Unsafe Rejoin (5 second time penalty. 2 penalty points (total of 6 for the 12 month period)) Document FIA ↗
27 Nico Hülkenberg Time penalty 64 Après la course +10s Infringement - Car 27 - Failure to Serve a Penalty (10 second time penalty) Document FIA ↗
Tour 64 · Purgée Après la course · +10s Infringement - Car 27 - Failure to Serve a Penalty (10 second time penalty) Document FIA ↗
55 Carlos Sainz Black-and-white flag warning 17 CAUSING A COLLISION
Tour 17 CAUSING A COLLISION
18 Lance Stroll Black-and-white flag warning 41 CAUSING A COLLISION
Tour 41 CAUSING A COLLISION
23 Alexander Albon Black-and-white flag warning 55 TRACK LIMITS
Tour 55 TRACK LIMITS
20 Kevin Magnussen Black-and-white flag warning 58 TRACK LIMITS
Tour 58 TRACK LIMITS
14 Fernando Alonso Black-and-white flag warning 59 TRACK LIMITS
Tour 59 TRACK LIMITS
11 Sergio Pérez Black-and-white flag warning 66 TRACK LIMITS
Tour 66 TRACK LIMITS
10 Pierre Gasly Black-and-white flag warning 68 TRACK LIMITS
Tour 68 TRACK LIMITS
23 Alexander Albon Tours supprimés 54 TRACK LIMITS (PIT)
Tour 54 TRACK LIMITS (PIT)
63 George Russell Tours supprimés 55 TRACK LIMITS (PIT)
Tour 55 TRACK LIMITS (PIT)
44 Lewis Hamilton Tours supprimés 55 TRACK LIMITS (PIT)
Tour 55 TRACK LIMITS (PIT)
10 Pierre Gasly Tours supprimés 56 TRACK LIMITS (PIT)
Tour 56 TRACK LIMITS (PIT)
Tour = tour où la pénalité a été infligée · Purgée = tour où elle a été purgée aux stands (vide : ajoutée au temps de course)
Time, drive-through and stop-go penalties come from race control messages (OpenF1, 2023+). Grille penalties never appear there — the stewards publish them as documents after the session — so they are worked back from the starting grid against the les qualifications classification, which gives places actually lost rather than the figure written in the decision.
PiloteTypeTourPurgéeInfligéeMotif
18 Lance Stroll No further action Decision - Car 18 - Alleged Weighbridge Procedure Infringement (No further action.) Document FIA ↗
Decision - Car 18 - Alleged Weighbridge Procedure Infringement (No further action.) Document FIA ↗
16 Charles Leclerc Pénalité sur la grille ▼3 Infringement - Car 16 - Alleged Impeding of Car 4 (Drop of 3 grid positions.) Document FIA ↗
▼3 Infringement - Car 16 - Alleged Impeding of Car 4 (Drop of 3 grid positions.) Document FIA ↗
Tour = tour où la pénalité a été infligée · Purgée = tour où elle a été purgée aux stands (vide : ajoutée au temps de course)
Time, drive-through and stop-go penalties come from race control messages (OpenF1, 2023+). Grille penalties never appear there — the stewards publish them as documents after the session — so they are worked back from the starting grid against the les qualifications classification, which gives places actually lost rather than the figure written in the decision.
PiloteTypeTourPurgéeInfligéeMotif
24 Guanyu Zhou Fine €100 Infringement - Car 24 - Pit Lane Speeding (Fourth) (The competitor (Alfa Romeo F1 Team Stake) is fined €100.) Document FIA ↗
€100 Infringement - Car 24 - Pit Lane Speeding (Fourth) (The competitor (Alfa Romeo F1 Team Stake) is fined €100.) Document FIA ↗
44 Lewis Hamilton Fine €600 Infringement - Car 44 - Pit Lane Speeding (The competitor (Mercedes-AMG PETRONAS F1 Team) is fined €600.) Document FIA ↗
€600 Infringement - Car 44 - Pit Lane Speeding (The competitor (Mercedes-AMG PETRONAS F1 Team) is fined €600.) Document FIA ↗
24 Guanyu Zhou Fine €100 Infringement - Car 24 - Pit Lane Speeding (Third) (The competitor (Alfa Romeo F1 Team Stake) is fined €100.) Document FIA ↗
€100 Infringement - Car 24 - Pit Lane Speeding (Third) (The competitor (Alfa Romeo F1 Team Stake) is fined €100.) Document FIA ↗
2 Logan Sargeant Fine €100 Infringement - Car 2 - Pit Lane Speeding (Second) (The competitor (Williams Racing) is fined €100.) Document FIA ↗
€100 Infringement - Car 2 - Pit Lane Speeding (Second) (The competitor (Williams Racing) is fined €100.) Document FIA ↗
2 Logan Sargeant Fine €200 Infringement - Car 2 - Pit Lane Speeding (The competitor (Williams Racing) is fined €200.) Document FIA ↗
€200 Infringement - Car 2 - Pit Lane Speeding (The competitor (Williams Racing) is fined €200.) Document FIA ↗
24 Guanyu Zhou Fine €300 Infringement - Car 24 - Pit Lane Speeding (Second) (The competitor (Alfa Romeo F1 Team Stake) is fined €300.) Document FIA ↗
€300 Infringement - Car 24 - Pit Lane Speeding (Second) (The competitor (Alfa Romeo F1 Team Stake) is fined €300.) Document FIA ↗
24 Guanyu Zhou Fine €300 Infringement - Car 24 - Pit Lane Speeding (The competitor (Alfa Romeo F1 Team Stake) is fined €300.) Document FIA ↗
€300 Infringement - Car 24 - Pit Lane Speeding (The competitor (Alfa Romeo F1 Team Stake) is fined €300.) Document FIA ↗
Tour = tour où la pénalité a été infligée · Purgée = tour où elle a été purgée aux stands (vide : ajoutée au temps de course)
Time, drive-through and stop-go penalties come from race control messages (OpenF1, 2023+). Grille penalties never appear there — the stewards publish them as documents after the session — so they are worked back from the starting grid against the les qualifications classification, which gives places actually lost rather than the figure written in the decision.
PiloteTypeTourPurgéeInfligéeMotif
63 George Russell Fine €100 Infringement - Car 63 - Pit Lane Speeding (The competitor (Mercedes-AMG PETRONAS F1 Team) is fined €100.) Document FIA ↗
€100 Infringement - Car 63 - Pit Lane Speeding (The competitor (Mercedes-AMG PETRONAS F1 Team) is fined €100.) Document FIA ↗
22 Yuki Tsunoda Black-and-white flag warning €1,000 Infringement - Car 22 - Pit Lane Speeding (The competitor (Scuderia AlphaTauri) is fined €1,000 and the driver is given a warning.) Document FIA ↗
€1,000 Infringement - Car 22 - Pit Lane Speeding (The competitor (Scuderia AlphaTauri) is fined €1,000 and the driver is given a warning.) Document FIA ↗
Tour = tour où la pénalité a été infligée · Purgée = tour où elle a été purgée aux stands (vide : ajoutée au temps de course)
Time, drive-through and stop-go penalties come from race control messages (OpenF1, 2023+). Grille penalties never appear there — the stewards publish them as documents after the session — so they are worked back from the starting grid against the les qualifications classification, which gives places actually lost rather than the figure written in the decision.
PiloteTypeTourPurgéeInfligéeMotif
23 Alexander Albon Fine €100 Infringement - Car 23 - Pit Lane Speeding (The competitor (Williams Racing) is fined €100.) Document FIA ↗
€100 Infringement - Car 23 - Pit Lane Speeding (The competitor (Williams Racing) is fined €100.) Document FIA ↗
Tour = tour où la pénalité a été infligée · Purgée = tour où elle a été purgée aux stands (vide : ajoutée au temps de course)
Time, drive-through and stop-go penalties come from race control messages (OpenF1, 2023+). Grille penalties never appear there — the stewards publish them as documents after the session — so they are worked back from the starting grid against the les qualifications classification, which gives places actually lost rather than the figure written in the decision.
DocTitreObjetPublished(CET)
Course Director's Event Notes ↗ 2023-05-24 15:01
2023-05-24 15:01 CET
Post-Course Checks Miami GP on Car 10 ↗ 10 Pierre Gasly 2023-05-24 15:42
10 Pierre Gasly 2023-05-24 15:42 CET
Event Notes - Circuit Map, Pit Lane, Red Zone and Pirelli Preview ↗ 2023-05-24 16:17
2023-05-24 16:17 CET
Event Notes - Pirelli Preview V2 ↗ 2023-05-25 10:50
2023-05-25 10:50 CET
Car Display Procedure ↗ 2023-05-26 09:16
2023-05-26 09:16 CET
RNCs utilisés per driver up to now ↗ 2023-05-26 11:39
2023-05-26 11:39 CET
PU elements utilisés per driver up to now ↗ 2023-05-26 11:39
2023-05-26 11:39 CET
Self scrutineering ↗ 2023-05-26 11:42
2023-05-26 11:42 CET
Entry List ↗ 2023-05-26 11:46
2023-05-26 11:46 CET
Course Director's Event Notes V2 ↗ 2023-05-26 12:15
2023-05-26 12:15 CET
New PU elements for this Competition ↗ 2023-05-26 14:19
2023-05-26 14:19 CET
P1 Classification ↗ 2023-05-26 14:41
2023-05-26 14:41 CET
Course Director's Event Notes V3 ↗ 2023-05-26 14:55
2023-05-26 14:55 CET
Summons - Car 22 - Pit Lane Speeding ↗ 22 Yuki Tsunoda 2023-05-26 18:26
22 Yuki Tsunoda 2023-05-26 18:26 CET
P2 Classification ↗ 2023-05-26 18:26
2023-05-26 18:26 CET
Infringement - Car 63 - Pit Lane Speeding ↗ 63 George Russell 2023-05-26 18:42
63 George Russell 2023-05-26 18:42 CET
Infringement - Car 22 - Pit Lane Speeding ↗ 22 Yuki Tsunoda 2023-05-26 19:06
22 Yuki Tsunoda 2023-05-26 19:06 CET
P1 and P2 scrutineering ↗ 2023-05-26 19:49
2023-05-26 19:49 CET
Use of a gearbox assembly outside the RNC allocation ↗ 2023-05-26 19:50
2023-05-26 19:50 CET
Course Director's Note - SC2-SC1 Time ↗ 2023-05-26 21:26
2023-05-26 21:26 CET
Curfew ↗ 2023-05-27 09:36
2023-05-27 09:36 CET
Course Director's Note - Additional Intermediate Pneus ↗ 2023-05-27 10:31
2023-05-27 10:31 CET
New PU elements for this Competition ↗ 2023-05-27 13:22
2023-05-27 13:22 CET
Infringement - Car 24 - Pit Lane Speeding (Third) ↗ 24 Guanyu Zhou 2023-05-27 13:23
24 Guanyu Zhou 2023-05-27 13:23 CET
Infringement - Car 2 - Pit Lane Speeding (Second) ↗ 2 Logan Sargeant 2023-05-27 13:23
2 Logan Sargeant 2023-05-27 13:23 CET
Infringement - Car 2 - Pit Lane Speeding ↗ 2 Logan Sargeant 2023-05-27 13:23
2 Logan Sargeant 2023-05-27 13:23 CET
Infringement - Car 24 - Pit Lane Speeding (Second) ↗ 24 Guanyu Zhou 2023-05-27 13:23
24 Guanyu Zhou 2023-05-27 13:23 CET
Infringement - Car 24 - Pit Lane Speeding ↗ 24 Guanyu Zhou 2023-05-27 13:23
24 Guanyu Zhou 2023-05-27 13:23 CET
Infringement - Car 24 - Pit Lane Speeding (Fourth) ↗ 24 Guanyu Zhou 2023-05-27 13:29
24 Guanyu Zhou 2023-05-27 13:29 CET
Infringement - Car 44 - Pit Lane Speeding ↗ 44 Lewis Hamilton 2023-05-27 13:29
44 Lewis Hamilton 2023-05-27 13:29 CET
P3 Classification ↗ 2023-05-27 13:40
2023-05-27 13:40 CET
Post-Qualifications Procedure ↗ 2023-05-27 14:25
2023-05-27 14:25 CET
New RNCs for this Competition ↗ 2023-05-27 16:08
2023-05-27 16:08 CET
Summons - Car 4 - Alleged Impeding by Car 16 ↗ 4 Lando Norris 2023-05-27 17:31
4 Lando Norris 2023-05-27 17:31 CET
Summons - Car 16 - Alleged Impeding of Car 4 ↗ 16 Charles Leclerc 2023-05-27 17:31
16 Charles Leclerc 2023-05-27 17:31 CET
Provisional Qualifications Classification ↗ 2023-05-27 17:46
2023-05-27 17:46 CET
Summons - Car 18 - Alleged Weighbridge Procedure Infringement ↗ 18 Lance Stroll 2023-05-27 17:46
18 Lance Stroll 2023-05-27 17:46 CET
Qualifications Deleted Tour Times ↗ 2023-05-27 18:50
2023-05-27 18:50 CET
P3 and Qualifications scrutineering ↗ 2023-05-27 19:50
2023-05-27 19:50 CET
Infringement - Car 16 - Alleged Impeding of Car 4 ↗ 16 Charles Leclerc 2023-05-27 19:50
16 Charles Leclerc 2023-05-27 19:50 CET
Final Qualifications Classification ↗ 2023-05-27 20:02
2023-05-27 20:02 CET
Decision - Car 18 - Alleged Weighbridge Procedure Infringement ↗ 18 Lance Stroll 2023-05-27 20:02
18 Lance Stroll 2023-05-27 20:02 CET
Provisional Starting Grille ↗ 2023-05-27 20:06
2023-05-27 20:06 CET
Pre-Course Procedure ↗ 2023-05-28 11:00
2023-05-28 11:00 CET
Post-Course Procedure ↗ 2023-05-28 11:01
2023-05-28 11:01 CET
Parts and parameters been replaced and or changed during Parc Fermé ↗ 2023-05-28 12:55
2023-05-28 12:55 CET
Final Starting Grille ↗ 2023-05-28 13:01
2023-05-28 13:01 CET
Infringement - Car 23 - Pit Lane Speeding ↗ 23 Alexander Albon 2023-05-28 14:54
23 Alexander Albon 2023-05-28 14:54 CET
Infringement - Car 27 - Causing a Collision ↗ 27 Nico Hülkenberg 2023-05-28 15:42
27 Nico Hülkenberg 2023-05-28 15:42 CET
Infringement - Car 27 - Failure to Serve a Penalty ↗ 27 Nico Hülkenberg 2023-05-28 16:52
27 Nico Hülkenberg 2023-05-28 16:52 CET
Infringement - Car 2 - Pit Lane Speeding ↗ 2 Logan Sargeant 2023-05-28 16:57
2 Logan Sargeant 2023-05-28 16:57 CET
Infringement - Car 63 - Unsafe Rejoin ↗ 63 George Russell 2023-05-28 17:03
63 George Russell 2023-05-28 17:03 CET
Provisional Course Classification ↗ 2023-05-28 17:16
2023-05-28 17:16 CET
Course Deleted Tour Times ↗ 2023-05-28 17:33
2023-05-28 17:33 CET
Course scrutineering ↗ 2023-05-28 18:53
2023-05-28 18:53 CET
Final Course Classification ↗ 2023-05-28 18:56
2023-05-28 18:56 CET
Championnat Points ↗ 2023-05-28 19:00
2023-05-28 19:00 CET
FIA official decisions and documents (fia.com) · PDF original PDF links
Record Basis · Calculation basis
Course order is the final classification(post-race penalties applied) · les qualifications session data 2003+ · lap times 1996+ · pit stops 2012+ (pit-lane transit, not stationary time) · Abandon = Finished(Finished·+N Tours) non-Finished statuses
Sources des données: Jolpica-F1 (Ergast compatible API) · weather·Direction de course OpenF1 (2023+) · Last fetched: 2026-09-05 14:15